Location: Alderney
(49.7170°N, 2.2000°W)
Time: 08:55:37
(UTC+01:00)

OTV 5 (USA 277) - Visible Passes

Search period start: 17 October 2017 00:00
Search period end: 27 October 2017 00:00
Orbit: 404 x 417 km, 43.0° (Epoch: 07 September)

Date Brightness Start Highest point End Pass type
(mag) Time Alt. Az. Time Alt. Az. Time Alt. Az.
17 Oct ? 19:02:11 10° WSW 19:05:04 26° S 19:07:56 10° ESE visible
17 Oct ? 20:39:22 10° WSW 20:40:47 16° SW 20:40:47 16° SW visible
18 Oct ? 19:48:14 10° WSW 19:50:54 22° SSW 19:52:04 18° SSE visible
19 Oct ? 18:57:10 10° WSW 18:59:58 24° S 19:02:45 10° SE visible
19 Oct ? 20:35:12 10° SW 20:36:11 12° SSW 20:36:11 12° SSW visible
20 Oct ? 19:43:40 10° WSW 19:45:42 15° SSW 19:47:35 11° SSE visible
21 Oct ? 18:52:24 10° WSW 18:54:49 18° SSW 18:57:15 10° SSE visible
23 Oct ? 18:48:15 10° SW 18:49:36 12° SSW 18:50:57 10° S visible
